,,,PA_Meas_PMT16A,,PR_Meas_QMR101_102,,RH_Meas_QMH101,,SR_Meas_QMS101,,TA_Meas_QMH101,,GenWind,,GenWind,
date,time,status,PA,status,PR,status,RH,status,SR,status,TA,status,DirAvg,status,SpdAvg,
2012-06-07, 00:00:04,VALID,1003.62,VALID,0,VALID,94.5981,VALID,0,VALID,24.3812,VALID,1,VALID,0.403906,
2012-06-07, 00:01:04,VALID,1003.63,VALID,0,VALID,94.56,VALID,0,VALID,24.3636,VALID,1,VALID,0.503125,
2012-06-07, 00:02:04,VALID,1003.58,VALID,0,VALID,94.5905,VALID,0,VALID,24.3441,VALID,1,VALID,0.509766,
2012-06-07, 00:03:04,VALID,1003.58,VALID,0,VALID,94.5829,VALID,0,VALID,24.3033,VALID,1,VALID,0.4625,
2012-06-07, 00:04:04,VALID,1003.58,VALID,0,VALID,94.56,VALID,0.0815089,VALID,24.3459,VALID,1,VALID,0.300781,
2012-06-07, 00:05:04,VALID,1003.52,VALID,0,VALID,94.5752,VALID,0,VALID,24.3246,VALID,1,VALID,0.546484,
2012-06-07, 00:06:04,VALID,1003.53,VALID,0,VALID,94.5829,VALID,0.0815089,VALID,24.3246,VALID,1,VALID,0.535156,
2012-06-07, 00:07:04,VALID,1003.53,VALID,0,VALID,94.6057,VALID,0,VALID,24.3052,VALID,1,VALID,0.451562,
2012-06-07, 00:08:04,VALID,1003.51,VALID,0,VALID,94.5981,VALID,0,VALID,24.3052,VALID,1,VALID,0.466016,
2012-06-07, 00:09:04,VALID,1003.51,VALID,0,VALID,94.6057,VALID,0,VALID,24.3052,VALID,1,VALID,0.53125,
2012-06-07, 00:10:04,VALID,1003.49,VALID,0,VALID,94.621,VALID,0,VALID,24.2857,VALID,1,VALID,0.463281,
2012-06-07, 00:11:04,VALID,1003.49,VALID,0,VALID,94.6134,VALID,0,VALID,24.2662,VALID,1,VALID,0.567578,
2012-06-07, 00:12:04,VALID,1003.51,VALID,0,VALID,94.6134,VALID,0,VALID,24.2468,VALID,1,VALID,0.6,
2012-06-07, 00:13:04,VALID,1003.47,VALID,0,VALID,94.5752,VALID,0,VALID,24.2273,VALID,1,VALID,0.511328,
2012-06-07, 00:14:04,VALID,1003.49,VALID,0,VALID,94.5981,VALID,0,VALID,24.2291,VALID,1,VALID,0.410547,
2012-06-07, 00:15:04,VALID,1003.47,VALID,0,VALID,94.5981,VALID,0,VALID,24.2078,VALID,1,VALID,0.510547,
2012-06-07, 00:16:04,VALID,1003.45,VALID,0,VALID,94.621,VALID,0,VALID,24.2291,VALID,1,VALID,0.453516,
2012-06-07, 00:17:04,VALID,1003.44,VALID,0,VALID,94.6515,VALID,0,VALID,24.2078,VALID,1,VALID,0,
2012-06-07, 00:18:04,VALID,1003.42,VALID,0,VALID,94.6591,VALID,0,VALID,24.2291,VALID,1,VALID,0,
2012-06-07, 00:19:04,VALID,1003.41,VALID,0,VALID,94.7125,VALID,0,VALID,24.2273,VALID,1,VALID,0,
2012-06-07, 00:20:04,VALID,1003.39,VALID,0,VALID,94.7125,VALID,0,VALID,24.2468,VALID,1,VALID,0,
2012-06-07, 00:21:04,VALID,1003.39,VALID,0,VALID,94.6897,VALID,0,VALID,24.2097,VALID,1,VALID,0,
2012-06-07, 00:22:04,VALID,1003.36,VALID,0,VALID,94.7125,VALID,0,VALID,24.1884,VALID,1,VALID,0,
2012-06-07, 00:23:04,VALID,1003.35,VALID,0,VALID,94.6973,VALID,0,VALID,24.1884,VALID,1,VALID,0,
2012-06-07, 00:24:04,VALID,1003.35,VALID,0,VALID,94.7202,VALID,0,VALID,24.1884,VALID,1,VALID,0,
2012-06-07, 00:25:04,VALID,1003.33,VALID,0,VALID,94.7202,VALID,0,VALID,24.2078,VALID,1,VALID,0,
2012-06-07, 00:26:04,VALID,1003.33,VALID,0,VALID,94.7278,VALID,0,VALID,24.2291,VALID,1,VALID,0,
2012-06-07, 00:27:04,VALID,1003.35,VALID,0,VALID,94.7354,VALID,0,VALID,24.1884,VALID,1,VALID,0,
2012-06-07, 00:28:04,VALID,1003.33,VALID,0,VALID,94.7583,VALID,0,VALID,24.2097,VALID,1,VALID,0,
2012-06-07, 00:29:04,VALID,1003.32,VALID,0,VALID,94.7431,VALID,0.0815089,VALID,24.1884,VALID,1,VALID,0,
2012-06-07, 00:30:04,VALID,1003.33,VALID,0,VALID,94.7278,VALID,0.0815089,VALID,24.1689,VALID,1,VALID,0,
2012-06-07, 00:31:04,VALID,1003.33,VALID,0,VALID,94.7354,VALID,0,VALID,24.1707,VALID,1,VALID,0,
2012-06-07, 00:32:04,VALID,1003.32,VALID,0,VALID,94.7354,VALID,0,VALID,24.1707,VALID,1,VALID,0,
2012-06-07, 00:33:04,VALID,1003.29,VALID,0,VALID,94.7278,VALID,0.0815089,VALID,24.1513,VALID,1,VALID,0,
2012-06-07, 00:34:04,VALID,1003.29,VALID,0,VALID,94.7278,VALID,0,VALID,24.1105,VALID,1,VALID,0,
2012-06-07, 00:35:04,VALID,1003.28,VALID,0,VALID,94.7278,VALID,0,VALID,24.1105,VALID,1,VALID,0,
2012-06-07, 00:36:04,VALID,1003.28,VALID,0,VALID,94.7583,VALID,0,VALID,24.13,VALID,1,VALID,0,
2012-06-07, 00:37:04,VALID,1003.27,VALID,0,VALID,94.7507,VALID,0,VALID,24.1105,VALID,1,VALID,0,
2012-06-07, 00:38:04,VALID,1003.26,VALID,0,VALID,94.766,VALID,0,VALID,24.1318,VALID,1,VALID,0,
2012-06-07, 00:39:04,VALID,1003.24,VALID,0,VALID,94.766,VALID,0,VALID,24.091,VALID,1,VALID,0,
2012-06-07, 00:40:04,VALID,1003.25,VALID,0,VALID,94.7507,VALID,0,VALID,24.1123,VALID,1,VALID,0,
2012-06-07, 00:41:04,VALID,1003.21,VALID,0,VALID,94.766,VALID,0,VALID,24.0929,VALID,1,VALID,0,
2012-06-07, 00:42:04,VALID,1003.22,VALID,0,VALID,94.766,VALID,0,VALID,24.0716,VALID,1,VALID,0,
2012-06-07, 00:43:04,VALID,1003.21,VALID,0,VALID,94.7736,VALID,0,VALID,24.0716,VALID,1,VALID,0,
2012-06-07, 00:44:04,VALID,1003.19,VALID,0,VALID,94.7812,VALID,0,VALID,24.0929,VALID,1,VALID,0,
2012-06-07, 00:45:04,VALID,1003.16,VALID,0,VALID,94.8041,VALID,0,VALID,24.1123,VALID,1,VALID,0,
2012-06-07, 00:46:04,VALID,1003.15,VALID,0,VALID,94.8346,VALID,0,VALID,24.1105,VALID,1,VALID,0,
2012-06-07, 00:47:04,VALID,1003.17,VALID,0,VALID,94.8422,VALID,0,VALID,24.1105,VALID,1,VALID,0,
2012-06-07, 00:48:04,VALID,1003.18,VALID,0,VALID,94.8499,VALID,0,VALID,24.091,VALID,1,VALID,0,
2012-06-07, 00:49:04,VALID,1003.18,VALID,0,VALID,94.8422,VALID,0,VALID,24.1123,VALID,1,VALID,0,
2012-06-07, 00:50:04,VALID,1003.16,VALID,0,VALID,94.8651,VALID,0,VALID,24.091,VALID,1,VALID,0,
2012-06-07, 00:51:04,VALID,1003.17,VALID,0,VALID,94.8804,VALID,0,VALID,24.1105,VALID,1,VALID,0,
2012-06-07, 00:52:04,VALID,1003.15,VALID,0,VALID,94.888,VALID,0,VALID,24.13,VALID,1,VALID,0,
2012-06-07, 00:53:04,VALID,1003.14,VALID,0,VALID,94.8804,VALID,0.0815089,VALID,24.0892,VALID,1,VALID,0,
2012-06-07, 00:54:04,VALID,1003.14,VALID,0,VALID,94.8728,VALID,0,VALID,24.13,VALID,1,VALID,0,
2012-06-07, 00:55:04,VALID,1003.1,VALID,0,VALID,94.888,VALID,0,VALID,24.1494,VALID,1,VALID,0,
2012-06-07, 00:56:04,VALID,1003.11,VALID,0,VALID,94.8804,VALID,0,VALID,24.13,VALID,1,VALID,0,
2012-06-07, 00:57:04,VALID,1003.11,VALID,0,VALID,94.8804,VALID,0,VALID,24.1513,VALID,1,VALID,0,
2012-06-07, 00:58:04,VALID,1003.1,VALID,0,VALID,94.8728,VALID,0,VALID,24.13,VALID,1,VALID,0,
2012-06-07, 00:59:04,VALID,1003.09,VALID,0,VALID,94.8804,VALID,0.0815089,VALID,24.1105,VALID,1,VALID,0,
2012-06-07, 01:00:04,VALID,1003.11,VALID,0,VALID,94.888,VALID,0.0815089,VALID,24.13,VALID,1,VALID,0,
2012-06-07, 01:01:04,VALID,1003.11,VALID,0,VALID,94.8499,VALID,0,VALID,24.1105,VALID,1,VALID,0,
2012-06-07, 01:02:04,VALID,1003.1,VALID,0,VALID,94.8728,VALID,0,VALID,24.0697,VALID,1,VALID,0,
2012-06-07, 01:03:04,VALID,1003.09,VALID,0,VALID,94.8499,VALID,0,VALID,24.0697,VALID,1,VALID,0,
2012-06-07, 01:04:04,VALID,1003.1,VALID,0,VALID,94.8575,VALID,0.0815089,VALID,24.091,VALID,1,VALID,0,
2012-06-07, 01:05:04,VALID,1003.12,VALID,0,VALID,94.8651,VALID,0,VALID,24.1123,VALID,1,VALID,0,
2012-06-07, 01:06:04,VALID,1003.12,VALID,0,VALID,94.8956,VALID,0,VALID,24.1318,VALID,1,VALID,0,
2012-06-07, 01:07:04,VALID,1003.08,VALID,0,VALID,94.8956,VALID,0.0815089,VALID,24.1105,VALID,1,VALID,0,
2012-06-07, 01:08:04,VALID,1003.07,VALID,0,VALID,94.8956,VALID,0.0815089,VALID,24.1513,VALID,1,VALID,0,
2012-06-07, 01:09:04,VALID,1003.05,VALID,0,VALID,94.8956,VALID,0,VALID,24.1318,VALID,1,VALID,0,
2012-06-07, 01:10:04,VALID,1003.09,VALID,0,VALID,94.888,VALID,0,VALID,24.1123,VALID,1,VALID,0,
2012-06-07, 01:11:04,VALID,1003.06,VALID,0,VALID,94.9033,VALID,0.0815089,VALID,24.1123,VALID,1,VALID,0,
2012-06-07, 01:12:04,VALID,1003.03,VALID,0,VALID,94.8956,VALID,0,VALID,24.091,VALID,1,VALID,0,
2012-06-07, 01:13:04,VALID,1003.04,VALID,0,VALID,94.8804,VALID,0,VALID,24.0929,VALID,1,VALID,0,
2012-06-07, 01:14:04,VALID,1003.04,VALID,0,VALID,94.8728,VALID,0,VALID,24.0929,VALID,1,VALID,0,
2012-06-07, 01:15:04,VALID,1003.01,VALID,0,VALID,94.8804,VALID,0,VALID,24.0716,VALID,1,VALID,0,
2012-06-07, 01:16:04,VALID,1003.01,VALID,0,VALID,94.8728,VALID,0,VALID,24.0521,VALID,1,VALID,0,
2012-06-07, 01:17:04,VALID,1003.05,VALID,0,VALID,94.8804,VALID,0,VALID,24.0539,VALID,1,VALID,0,
2012-06-07, 01:18:04,VALID,1002.99,VALID,0,VALID,94.8804,VALID,0,VALID,24.0326,VALID,1,VALID,0,
2012-06-07, 01:19:04,VALID,1003,VALID,0,VALID,94.888,VALID,0,VALID,24.0326,VALID,1,VALID,0,
2012-06-07, 01:20:04,VALID,1003,VALID,0,VALID,94.9033,VALID,0,VALID,24.0521,VALID,1,VALID,0,
2012-06-07, 01:21:04,VALID,1002.99,VALID,0,VALID,94.9338,VALID,0,VALID,24.0521,VALID,1,VALID,0,
2012-06-07, 01:22:04,VALID,1002.98,VALID,0,VALID,94.9185,VALID,0,VALID,24.0521,VALID,1,VALID,0,
2012-06-07, 01:23:04,VALID,1002.92,VALID,0,VALID,94.9414,VALID,0,VALID,24.0716,VALID,1,VALID,0,
2012-06-07, 01:24:04,VALID,1002.94,VALID,0,VALID,94.9338,VALID,0,VALID,24.0539,VALID,1,VALID,0,
2012-06-07, 01:25:04,VALID,1002.96,VALID,0,VALID,94.9109,VALID,0,VALID,24.0326,VALID,1,VALID,0,
2012-06-07, 01:26:04,VALID,1002.92,VALID,0,VALID,94.949,VALID,0,VALID,24.0539,VALID,1,VALID,0,
2012-06-07, 01:27:04,VALID,1002.94,VALID,0,VALID,94.9338,VALID,0,VALID,24.0326,VALID,1,VALID,0,
2012-06-07, 01:28:04,VALID,1002.93,VALID,0,VALID,94.949,VALID,0,VALID,24.0326,VALID,1,VALID,0,
2012-06-07, 01:29:04,VALID,1002.92,VALID,0,VALID,94.9719,VALID,0,VALID,24.0539,VALID,1,VALID,0,
2012-06-07, 01:30:04,VALID,1002.92,VALID,0,VALID,94.949,VALID,0,VALID,24.0521,VALID,1,VALID,0,
2012-06-07, 01:31:04,VALID,1002.9,VALID,0,VALID,94.9567,VALID,0,VALID,24.0521,VALID,1,VALID,0,
2012-06-07, 01:32:04,VALID,1002.9,VALID,0,VALID,95.0024,VALID,0,VALID,24.0734,VALID,1,VALID,0,
2012-06-07, 01:33:04,VALID,1002.89,VALID,0,VALID,94.9948,VALID,0,VALID,24.0521,VALID,1,VALID,0,
2012-06-07, 01:34:04,VALID,1002.9,VALID,0,VALID,95.0024,VALID,0,VALID,24.0929,VALID,1,VALID,0,
2012-06-07, 01:35:04,VALID,1002.85,VALID,0,VALID,94.9948,VALID,0,VALID,24.091,VALID,1,VALID,0,
2012-06-07, 01:36:04,VALID,1002.87,VALID,0,VALID,94.9948,VALID,0,VALID,24.091,VALID,1,VALID,0,
2012-06-07, 01:37:04,VALID,1002.84,VALID,0,VALID,94.9796,VALID,0,VALID,24.091,VALID,1,VALID,0,
2012-06-07, 01:38:04,VALID,1002.86,VALID,0,VALID,94.9872,VALID,0,VALID,24.0716,VALID,1,VALID,0,
2012-06-07, 01:39:04,VALID,1002.83,VALID,0,VALID,94.9796,VALID,0,VALID,24.0521,VALID,1,VALID,0,
2012-06-07, 01:40:04,VALID,1002.83,VALID,0,VALID,94.9567,VALID,0,VALID,24.0521,VALID,1,VALID,0,
2012-06-07, 01:41:04,VALID,1002.82,VALID,0,VALID,94.9796,VALID,0.0815089,VALID,24.0326,VALID,1,VALID,0,
2012-06-07, 01:42:04,VALID,1002.8,VALID,0,VALID,94.9796,VALID,0,VALID,24.0326,VALID,1,VALID,0,
2012-06-07, 01:43:04,VALID,1002.78,VALID,0,VALID,94.9948,VALID,0,VALID,24.0326,VALID,1,VALID,0,
2012-06-07, 01:44:04,VALID,1002.8,VALID,0,VALID,94.9872,VALID,0,VALID,24.0132,VALID,1,VALID,0,
2012-06-07, 01:45:04,VALID,1002.81,VALID,0,VALID,94.9948,VALID,0,VALID,24.0539,VALID,1,VALID,0,
2012-06-07, 01:46:04,VALID,1002.8,VALID,0,VALID,95.033,VALID,0,VALID,24.0521,VALID,1,VALID,0,
2012-06-07, 01:47:04,VALID,1002.81,VALID,0,VALID,95.033,VALID,0,VALID,24.0521,VALID,1,VALID,0,
2012-06-07, 01:48:04,VALID,1002.81,VALID,0,VALID,95.0558,VALID,0,VALID,24.091,VALID,1,VALID,0,
2012-06-07, 01:49:04,VALID,1002.8,VALID,0,VALID,95.0253,VALID,0,VALID,24.1123,VALID,1,VALID,0,
2012-06-07, 01:50:04,VALID,1002.77,VALID,0,VALID,95.0253,VALID,0,VALID,24.091,VALID,1,VALID,0,
2012-06-07, 01:51:04,VALID,1002.77,VALID,0,VALID,95.0101,VALID,0,VALID,24.0716,VALID,1,VALID,0,
2012-06-07, 01:52:04,VALID,1002.75,VALID,0,VALID,94.9948,VALID,0,VALID,24.0521,VALID,1,VALID,0,
2012-06-07, 01:53:04,VALID,1002.77,VALID,0,VALID,95.0253,VALID,0,VALID,24.0521,VALID,1,VALID,0,
2012-06-07, 01:54:04,VALID,1002.77,VALID,0,VALID,95.0406,VALID,0,VALID,24.0734,VALID,1,VALID,0,
2012-06-07, 01:55:04,VALID,1002.76,VALID,0,VALID,95.0558,VALID,0,VALID,24.0716,VALID,1,VALID,0,
2012-06-07, 01:56:04,VALID,1002.79,VALID,0,VALID,95.0482,VALID,0,VALID,24.1105,VALID,1,VALID,0,
2012-06-07, 01:57:04,VALID,1002.8,VALID,0,VALID,95.0711,VALID,0,VALID,24.1105,VALID,1,VALID,0,
2012-06-07, 01:58:04,VALID,1002.78,VALID,0,VALID,95.0635,VALID,0,VALID,24.091,VALID,1,VALID,0,
2012-06-07, 01:59:04,VALID,1002.77,VALID,0,VALID,95.0558,VALID,0,VALID,24.091,VALID,1,VALID,0,
2012-06-07, 02:00:04,VALID,1002.77,VALID,0,VALID,95.0406,VALID,0,VALID,24.0716,VALID,1,VALID,0,
2012-06-07, 02:01:04,VALID,1002.78,VALID,0,VALID,95.0406,VALID,0,VALID,24.0734,VALID,1,VALID,0,
2012-06-07, 02:02:04,VALID,1002.76,VALID,0,VALID,95.033,VALID,0,VALID,24.0521,VALID,1,VALID,0,
2012-06-07, 02:03:04,VALID,1002.77,VALID,0,VALID,95.0406,VALID,0,VALID,24.0345,VALID,1,VALID,0,
2012-06-07, 02:04:04,VALID,1002.78,VALID,0,VALID,95.0406,VALID,0,VALID,24.0132,VALID,1,VALID,0,
2012-06-07, 02:05:04,VALID,1002.74,VALID,0,VALID,95.033,VALID,0,VALID,24.0539,VALID,1,VALID,0,
2012-06-07, 02:06:04,VALID,1002.78,VALID,0,VALID,95.0406,VALID,0,VALID,24.0326,VALID,1,VALID,0,
2012-06-07, 02:07:04,VALID,1002.78,VALID,0,VALID,95.0635,VALID,0,VALID,24.0521,VALID,1,VALID,0,
2012-06-07, 02:08:04,VALID,1002.79,VALID,0,VALID,95.0558,VALID,0,VALID,24.0326,VALID,1,VALID,0,
2012-06-07, 02:09:04,VALID,1002.79,VALID,0,VALID,95.0177,VALID,0,VALID,24.015,VALID,1,VALID,0,
2012-06-07, 02:10:04,VALID,1002.79,VALID,0,VALID,94.9948,VALID,0,VALID,23.9566,VALID,1,VALID,0,
2012-06-07, 02:11:04,VALID,1002.8,VALID,0,VALID,94.9643,VALID,0,VALID,23.8769,VALID,1,VALID,0,
2012-06-07, 02:12:04,VALID,1002.81,VALID,0,VALID,94.949,VALID,0,VALID,23.838,VALID,1,VALID,0,
2012-06-07, 02:13:04,VALID,1002.79,VALID,0,VALID,94.9719,VALID,0,VALID,23.838,VALID,1,VALID,0,
2012-06-07, 02:14:04,VALID,1002.76,VALID,0,VALID,95.0406,VALID,0,VALID,23.8769,VALID,1,VALID,0,
2012-06-07, 02:15:04,VALID,1002.75,VALID,0,VALID,95.0406,VALID,0,VALID,23.9371,VALID,1,VALID,0,
2012-06-07, 02:16:04,VALID,1002.74,VALID,0,VALID,95.0558,VALID,0.0815089,VALID,23.9353,VALID,1,VALID,0,
2012-06-07, 02:17:04,VALID,1002.69,VALID,0,VALID,95.0482,VALID,0,VALID,23.9159,VALID,1,VALID,0,
2012-06-07, 02:18:04,VALID,1002.7,VALID,0,VALID,95.0482,VALID,0,VALID,23.9177,VALID,1,VALID,0,
2012-06-07, 02:19:04,VALID,1002.69,VALID,0,VALID,95.0177,VALID,0,VALID,23.8982,VALID,1,VALID,0,
2012-06-07, 02:20:04,VALID,1002.7,VALID,0,VALID,95.0482,VALID,0,VALID,23.8575,VALID,1,VALID,0,
2012-06-07, 02:21:04,VALID,1002.7,VALID,0,VALID,95.0253,VALID,0,VALID,23.8787,VALID,1,VALID,0,
2012-06-07, 02:22:04,VALID,1002.72,VALID,0,VALID,95.0635,VALID,0,VALID,23.8593,VALID,1,VALID,0,
2012-06-07, 02:23:04,VALID,1002.7,VALID,0,VALID,95.0711,VALID,0,VALID,23.8769,VALID,1,VALID,0,
2012-06-07, 02:24:04,VALID,1002.68,VALID,0,VALID,95.1169,VALID,0,VALID,23.9177,VALID,1,VALID,0,
2012-06-07, 02:25:04,VALID,1002.68,VALID,0,VALID,95.1169,VALID,0,VALID,23.9353,VALID,1,VALID,0,
2012-06-07, 02:26:04,VALID,1002.69,VALID,0,VALID,95.094,VALID,0,VALID,23.9353,VALID,1,VALID,0,
2012-06-07, 02:27:04,VALID,1002.7,VALID,0,VALID,95.094,VALID,0,VALID,23.9177,VALID,1,VALID,0,
2012-06-07, 02:28:04,VALID,1002.7,VALID,0,VALID,95.1093,VALID,0,VALID,23.9159,VALID,1,VALID,0,
2012-06-07, 02:29:04,VALID,1002.69,VALID,0,VALID,95.1169,VALID,0,VALID,23.9159,VALID,1,VALID,0,
2012-06-07, 02:30:04,VALID,1002.67,VALID,0,VALID,95.1093,VALID,0,VALID,23.9371,VALID,1,VALID,0,
2012-06-07, 02:31:04,VALID,1002.66,VALID,0,VALID,95.0711,VALID,0,VALID,23.8556,VALID,1,VALID,0,
2012-06-07, 02:32:04,VALID,1002.67,VALID,0,VALID,95.094,VALID,0,VALID,23.8769,VALID,1,VALID,0,
2012-06-07, 02:33:04,VALID,1002.64,VALID,0,VALID,95.1245,VALID,0,VALID,23.9371,VALID,1,VALID,0,
2012-06-07, 02:34:04,VALID,1002.65,VALID,0,VALID,95.1245,VALID,0,VALID,23.914,VALID,1,VALID,0,
2012-06-07, 02:35:04,VALID,1002.65,VALID,0,VALID,95.1245,VALID,0,VALID,23.9159,VALID,1,VALID,0,
2012-06-07, 02:36:04,VALID,1002.64,VALID,0,VALID,95.1169,VALID,0,VALID,23.9159,VALID,1,VALID,0,
2012-06-07, 02:37:04,VALID,1002.61,VALID,0,VALID,95.094,VALID,0.0815089,VALID,23.8769,VALID,1,VALID,0,
2012-06-07, 02:38:04,VALID,1002.66,VALID,0,VALID,95.0864,VALID,0.0815089,VALID,23.838,VALID,1,VALID,0,
2012-06-07, 02:39:04,VALID,1002.6,VALID,0,VALID,95.0711,VALID,0,VALID,23.8203,VALID,1,VALID,0,
2012-06-07, 02:40:05,VALID,1002.61,VALID,0,VALID,95.0711,VALID,0,VALID,23.8009,VALID,1,VALID,0,
2012-06-07, 02:41:05,VALID,1002.57,VALID,0,VALID,95.1245,VALID,0,VALID,23.8203,VALID,1,VALID,0,
2012-06-07, 02:42:05,VALID,1002.59,VALID,0,VALID,95.1169,VALID,0,VALID,23.8398,VALID,1,VALID,0,
2012-06-07, 02:43:05,VALID,1002.59,VALID,0,VALID,95.1321,VALID,0,VALID,23.8398,VALID,1,VALID,0,
2012-06-07, 02:44:05,VALID,1002.57,VALID,0,VALID,95.1474,VALID,0,VALID,23.8593,VALID,1,VALID,0,
2012-06-07, 02:45:05,VALID,1002.56,VALID,0,VALID,95.1245,VALID,0,VALID,23.8398,VALID,1,VALID,0,
2012-06-07, 02:46:05,VALID,1002.58,VALID,0,VALID,95.1245,VALID,0,VALID,23.8203,VALID,1,VALID,0,
2012-06-07, 02:47:05,VALID,1002.55,VALID,0,VALID,95.1093,VALID,0,VALID,23.8416,VALID,1,VALID,0,
2012-06-07, 02:48:05,VALID,1002.55,VALID,0,VALID,95.1169,VALID,0,VALID,23.8203,VALID,1,VALID,0,
2012-06-07, 02:49:05,VALID,1002.54,VALID,0,VALID,95.094,VALID,0,VALID,23.8027,VALID,1,VALID,0,
2012-06-07, 02:50:05,VALID,1002.53,VALID,0,VALID,95.1016,VALID,0,VALID,23.7619,VALID,1,VALID,0,
2012-06-07, 02:51:05,VALID,1002.52,VALID,0,VALID,95.094,VALID,0,VALID,23.7425,VALID,1,VALID,0,
2012-06-07, 02:52:05,VALID,1002.51,VALID,0,VALID,95.1016,VALID,0,VALID,23.7425,VALID,1,VALID,0,
2012-06-07, 02:53:05,VALID,1002.5,VALID,0,VALID,95.1093,VALID,0,VALID,23.723,VALID,1,VALID,0,
2012-06-07, 02:54:05,VALID,1002.53,VALID,0,VALID,95.1398,VALID,0,VALID,23.7601,VALID,1,VALID,0.460938,
2012-06-07, 02:55:05,VALID,1002.5,VALID,0,VALID,95.1245,VALID,0,VALID,23.7601,VALID,1,VALID,0.364844,
2012-06-07, 02:56:05,VALID,1002.53,VALID,0,VALID,95.1321,VALID,0,VALID,23.7601,VALID,1,VALID,0.352344,
2012-06-07, 02:57:05,VALID,1002.52,VALID,0,VALID,95.1474,VALID,0.0815089,VALID,23.7601,VALID,1,VALID,0.442578,
2012-06-07, 02:58:05,VALID,1002.52,VALID,0,VALID,95.155,VALID,0,VALID,23.7601,VALID,1,VALID,0.423047,
2012-06-07, 02:59:05,VALID,1002.52,VALID,0,VALID,95.1703,VALID,0,VALID,23.8009,VALID,1,VALID,0.208594,
2012-06-07, 03:00:05,VALID,1002.5,VALID,0,VALID,95.155,VALID,0,VALID,23.7796,VALID,1,VALID,0.308984,
2012-06-07, 03:01:05,VALID,1002.5,VALID,0,VALID,95.1627,VALID,0,VALID,23.8009,VALID,1,VALID,0.238672,
2012-06-07, 03:02:05,VALID,1002.48,VALID,0,VALID,95.1855,VALID,0,VALID,23.7796,VALID,1,VALID,0.174219,
2012-06-07, 03:03:05,VALID,1002.46,VALID,0,VALID,95.1779,VALID,0,VALID,23.7991,VALID,1,VALID,0,
2012-06-07, 03:04:05,VALID,1002.5,VALID,0,VALID,95.1932,VALID,0,VALID,23.8185,VALID,1,VALID,0,
2012-06-07, 03:05:05,VALID,1002.48,VALID,0,VALID,95.2084,VALID,0,VALID,23.8593,VALID,1,VALID,0,
2012-06-07, 03:06:05,VALID,1002.46,VALID,0,VALID,95.1779,VALID,0,VALID,23.8398,VALID,1,VALID,0,
2012-06-07, 03:07:05,VALID,1002.47,VALID,0,VALID,95.155,VALID,0,VALID,23.8009,VALID,1,VALID,0,
2012-06-07, 03:08:05,VALID,1002.46,VALID,0,VALID,95.155,VALID,0,VALID,23.7796,VALID,1,VALID,0,
2012-06-07, 03:09:05,VALID,1002.48,VALID,0,VALID,95.1703,VALID,0,VALID,23.7601,VALID,1,VALID,0.211719,
2012-06-07, 03:10:05,VALID,1002.46,VALID,0,VALID,95.1855,VALID,0,VALID,23.7796,VALID,360,VALID,0.710938,
2012-06-07, 03:11:05,VALID,1002.45,VALID,0,VALID,95.1932,VALID,0,VALID,23.7991,VALID,359,VALID,0.653516,
2012-06-07, 03:12:05,VALID,1002.49,VALID,0,VALID,95.2161,VALID,0,VALID,23.8167,VALID,357,VALID,0.907031,
2012-06-07, 03:13:05,VALID,1002.5,VALID,0,VALID,95.2161,VALID,0,VALID,23.8362,VALID,358,VALID,0.58125,
2012-06-07, 03:14:05,VALID,1002.48,VALID,0,VALID,95.2008,VALID,0,VALID,23.8575,VALID,358,VALID,0.651953,
2012-06-07, 03:15:05,VALID,1002.5,VALID,0,VALID,95.2084,VALID,0.0815089,VALID,23.8575,VALID,358,VALID,0.626172,
2012-06-07, 03:16:05,VALID,1002.53,VALID,0,VALID,95.1932,VALID,0,VALID,23.8964,VALID,357,VALID,0.585156,
2012-06-07, 03:17:05,VALID,1002.55,VALID,0,VALID,95.2084,VALID,0,VALID,23.8787,VALID,348,VALID,0.559375,
2012-06-07, 03:18:05,VALID,1002.53,VALID,0,VALID,95.1855,VALID,0,VALID,23.8787,VALID,347,VALID,0.498047,
2012-06-07, 03:19:05,VALID,1002.55,VALID,0,VALID,95.2008,VALID,0,VALID,23.8575,VALID,347,VALID,0.49375,
2012-06-07, 03:20:05,VALID,1002.54,VALID,0,VALID,95.2008,VALID,0,VALID,23.8575,VALID,348,VALID,0.465234,
2012-06-07, 03:21:05,VALID,1002.54,VALID,0,VALID,95.1703,VALID,0.0815089,VALID,23.8769,VALID,348,VALID,0.526172,
2012-06-07, 03:22:05,VALID,1002.56,VALID,0,VALID,95.1703,VALID,0,VALID,23.838,VALID,348,VALID,0.471094,
2012-06-07, 03:23:05,VALID,1002.56,VALID,0,VALID,95.1703,VALID,0,VALID,23.838,VALID,348,VALID,0.450781,
2012-06-07, 03:24:05,VALID,1002.56,VALID,0,VALID,95.1703,VALID,0,VALID,23.838,VALID,348,VALID,0.534766,
2012-06-07, 03:25:05,VALID,1002.56,VALID,0,VALID,95.155,VALID,0,VALID,23.8185,VALID,351,VALID,0.691016,
2012-06-07, 03:26:05,VALID,1002.59,VALID,0,VALID,95.155,VALID,0,VALID,23.7991,VALID,358,VALID,0.594922,
2012-06-07, 03:27:05,VALID,1002.57,VALID,0,VALID,95.1627,VALID,0,VALID,23.838,VALID,359,VALID,0.593359,
2012-06-07, 03:28:05,VALID,1002.58,VALID,0,VALID,95.1703,VALID,0,VALID,23.8575,VALID,359,VALID,0.651172,
2012-06-07, 03:29:05,VALID,1002.62,VALID,0,VALID,95.1627,VALID,0,VALID,23.8575,VALID,359,VALID,0.475781,
2012-06-07, 03:30:05,VALID,1002.61,VALID,0,VALID,95.1855,VALID,0,VALID,23.8964,VALID,359,VALID,0.342969,
2012-06-07, 03:31:05,VALID,1002.62,VALID,0,VALID,95.1703,VALID,0,VALID,23.8769,VALID,359,VALID,0,
2012-06-07, 03:32:05,VALID,1002.61,VALID,0,VALID,95.1703,VALID,0,VALID,23.9177,VALID,359,VALID,0,
2012-06-07, 03:33:05,VALID,1002.64,VALID,0,VALID,95.1627,VALID,0,VALID,23.8964,VALID,359,VALID,0,
2012-06-07, 03:34:05,VALID,1002.65,VALID,0,VALID,95.1398,VALID,0,VALID,23.8982,VALID,359,VALID,0,
2012-06-07, 03:35:05,VALID,1002.64,VALID,0,VALID,95.1093,VALID,0.0815089,VALID,23.8769,VALID,359,VALID,0,
2012-06-07, 03:36:05,VALID,1002.68,VALID,0,VALID,95.1245,VALID,0,VALID,23.838,VALID,359,VALID,0,
2012-06-07, 03:37:05,VALID,1002.69,VALID,0,VALID,95.1169,VALID,0,VALID,23.8575,VALID,359,VALID,0,
2012-06-07, 03:38:05,VALID,1002.72,VALID,0,VALID,95.1093,VALID,0.0815089,VALID,23.838,VALID,359,VALID,0,
2012-06-07, 03:39:05,VALID,1002.68,VALID,0,VALID,95.1169,VALID,0,VALID,23.838,VALID,359,VALID,0,
2012-06-07, 03:40:05,VALID,1002.73,VALID,0,VALID,95.1245,VALID,0,VALID,23.838,VALID,359,VALID,0,
2012-06-07, 03:41:05,VALID,1002.71,VALID,0,VALID,95.1169,VALID,0.0815089,VALID,23.838,VALID,359,VALID,0,
2012-06-07, 03:42:05,VALID,1002.69,VALID,0,VALID,95.094,VALID,0,VALID,23.8185,VALID,359,VALID,0,
2012-06-07, 03:43:05,VALID,1002.73,VALID,0,VALID,95.1016,VALID,0,VALID,23.8593,VALID,359,VALID,0,
2012-06-07, 03:44:05,VALID,1002.72,VALID,0,VALID,95.0864,VALID,0,VALID,23.8185,VALID,359,VALID,0,
2012-06-07, 03:45:05,VALID,1002.73,VALID,0,VALID,95.0864,VALID,0,VALID,23.7991,VALID,359,VALID,0,
2012-06-07, 03:46:05,VALID,1002.7,VALID,0,VALID,95.1016,VALID,0,VALID,23.7796,VALID,359,VALID,0,
2012-06-07, 03:47:05,VALID,1002.73,VALID,0,VALID,95.0864,VALID,0,VALID,23.8203,VALID,359,VALID,0,
2012-06-07, 03:48:05,VALID,1002.72,VALID,0,VALID,95.1093,VALID,0.0815089,VALID,23.7796,VALID,359,VALID,0,
2012-06-07, 03:49:05,VALID,1002.73,VALID,0,VALID,95.1169,VALID,0,VALID,23.8185,VALID,359,VALID,0,
2012-06-07, 03:50:05,VALID,1002.72,VALID,0,VALID,95.1169,VALID,0,VALID,23.7991,VALID,359,VALID,0,
2012-06-07, 03:51:05,VALID,1002.72,VALID,0,VALID,95.1245,VALID,0,VALID,23.7991,VALID,359,VALID,0,
2012-06-07, 03:52:05,VALID,1002.76,VALID,0,VALID,95.094,VALID,0,VALID,23.7991,VALID,359,VALID,0,
2012-06-07, 03:53:05,VALID,1002.76,VALID,0,VALID,95.094,VALID,0,VALID,23.7796,VALID,359,VALID,0,
2012-06-07, 03:54:05,VALID,1002.76,VALID,0,VALID,95.1093,VALID,0,VALID,23.8009,VALID,359,VALID,0,
2012-06-07, 03:55:05,VALID,1002.77,VALID,0,VALID,95.1016,VALID,0,VALID,23.8009,VALID,359,VALID,0,
2012-06-07, 03:56:05,VALID,1002.76,VALID,0,VALID,95.1016,VALID,0,VALID,23.7814,VALID,359,VALID,0,
2012-06-07, 03:57:05,VALID,1002.79,VALID,0,VALID,95.1016,VALID,0,VALID,23.8009,VALID,359,VALID,0,
2012-06-07, 03:58:05,VALID,1002.78,VALID,0,VALID,95.1016,VALID,0,VALID,23.7814,VALID,359,VALID,0,
2012-06-07, 03:59:05,VALID,1002.81,VALID,0,VALID,95.0787,VALID,0,VALID,23.7619,VALID,359,VALID,0,